Regional Weather Roundup
Issued by NWS Albany, NY

Home | Current Version | Previous Version | Graphics & Text | Print | Product List | Glossary Off
Versions: 1 2 3 4 5 6 7 8 9 10 11 12 13 14 15 16 17 18 19 20 21 22 23 24 25 26 27 28

000
ASUS41 KALY 151810
RWRALY

NEW YORK STATE HOURLY WEATHER ROUNDUP
NATIONAL WEATHER SERVICE ALBANY NY
200 PM EDT TUE APR 15 2014

NOTE: "FAIR" INDICATES FEW OR NO CLOUDS BELOW 12,000 FEET WITH NO
SIGNIFICANT WEATHER AND/OR NO OBSTRUCTIONS TO VISIBILITY.

NYZ032-033-038>043-046>054-057>066-NYZ062>081-151900-
EAST


CITY           SKY/WX    TMP DP  RH WIND       PRES   REMARKS
ALBANY         LGT RAIN  50  46  86 W25       29.51R
GLENS FALLS    LGT RAIN  61  58  90 S12       29.44R
POUGHKEEPSIE   LGT RAIN  65  60  84 S9G21     29.51F
NEWBURGH       LGT RAIN  64  63  94 W14       29.54F FOG
MONTGOMERY     HVY RAIN  64  62  93 S8        29.51S FOG
WHITE PLAINS   DRZL/FOG  58  56  93 S15G35    29.58F VSB 3/4
ISLIP          RAIN      57  55  93 S24G39    29.61F VSB 3/4
NEW YORK CITY  LGT RAIN  58  54  86 S24G39    29.58F
CENTRAL PARK   CLOUDY    59  56  89 S13G22    29.60F
$$

NYZ005>009-017-018-044>046-055-056-151900-
CENTRAL


CITY           SKY/WX    TMP DP  RH WIND       PRES   REMARKS
FULTON         SNOW      32  30  92 W21G29    29.74R VSB 1/2 WCI  20
SYRACUSE       LGT SNOW  34  34 100 W21       29.74R FOG     WCI  22
ROME           LGT RAIN  36  34  92 W16       29.69R FOG     WCI  26
ELMIRA         LGT SNOW  37  32  81 NW7       29.72R WCI  32
BINGHAMTON     LGT RAIN  36  34  92 NW16G24   29.64R FOG     WCI  26
MONTICELLO     CLOUDY    59  59 100 S9G17     29.53F
$$

NYZ026>034-041>043-151900-
NORTH


CITY           SKY/WX    TMP DP  RH WIND       PRES   REMARKS
WATERTOWN      LGT SNOW  35  31  85 W13       29.69R FOG     WCI  26
FORT DRUM      NOT AVBL
MASSENA        MIX PCPN  35  33  92 W15       29.63R WCI  25
SARANAC LAKE   RAIN      38  38 100 SW8       29.53R FOG     WCI  32
PLATTSBURGH    LGT RAIN  49  45  86 W9G17     29.46R
$$

NYZ001>004-010>016-019>021-151900-
WEST


CITY           SKY/WX    TMP DP  RH WIND       PRES   REMARKS
NIAGARA FALLS  FLURRIES  32  25  75 W20G26    29.81R WCI  20
BUFFALO        FLURRIES  32  27  81 W18G24    29.80S WCI  20
DUNKIRK        FLURRIES  31  26  82 W10G18    29.84S WCI  22
JAMESTOWN      CLOUDY    28  21  74 CALM      29.81R
WELLSVILLE     CLOUDY    32  26  78 NW16      29.72R WCI  21
ROCHESTER      FLURRIES  33  27  78 NW13G20   29.78R WCI  24
PENN YAN       LGT SNOW  33  30  88 W6        29.73F FOG     WCI  28
$$

             KEY
       WCI = WIND CHILL INDEX
       VSB = VISIBILITY
       HX  = HEAT INDEX
$$



USA.gov is the U.S. government's official web portal to all federal, state and local government web resources and services.